TimeEST,TemperatureF,Dew PointF,Humidity,Sea Level PressureIn,VisibilityMPH,Wind Direction,Wind SpeedMPH,Gust SpeedMPH,PrecipitationIn,Events,Conditions,WindDirDegrees,DateUTC
12:35 AM,30.0,19.9,66,30.23,10.0,SW,4.6,-,N/A,,Overcast,220,2013-01-07 05:35:00
12:54 AM,29.8,19.4,65,30.22,10.0,SW,4.6,-,N/A,,Overcast,230,2013-01-07 05:54:00
1:15 AM,28.9,19.4,68,30.22,10.0,SSW,3.5,-,N/A,,Mostly Cloudy,210,2013-01-07 06:15:00
1:34 AM,27.9,19.0,69,30.24,10.0,SW,4.6,-,N/A,,Scattered Clouds,230,2013-01-07 06:34:00
1:54 AM,27.5,19.0,71,30.23,10.0,South,3.5,-,N/A,,Clear,190,2013-01-07 06:54:00
2:15 AM,27.1,19.0,72,30.23,10.0,Calm,Calm,-,N/A,,Mostly Cloudy,0,2013-01-07 07:15:00
2:34 AM,25.9,18.0,72,30.23,10.0,SSE,4.6,-,N/A,,Mostly Cloudy,160,2013-01-07 07:34:00
2:55 AM,26.1,18.1,72,30.23,10.0,South,4.6,-,N/A,,Overcast,170,2013-01-07 07:55:00
3:14 AM,26.4,18.5,72,30.22,10.0,SSW,3.5,-,N/A,,Overcast,200,2013-01-07 08:14:00
3:35 AM,27.3,19.0,71,30.22,10.0,SSW,3.5,-,N/A,,Overcast,210,2013-01-07 08:35:00
3:54 AM,27.5,19.0,71,30.21,10.0,South,4.6,-,N/A,,Overcast,180,2013-01-07 08:54:00
4:15 AM,28.2,19.4,70,30.20,10.0,South,6.9,-,N/A,,Overcast,180,2013-01-07 09:15:00
4:34 AM,28.8,19.4,68,30.19,10.0,South,9.2,-,N/A,,Overcast,170,2013-01-07 09:34:00
4:55 AM,28.9,19.8,69,30.19,10.0,South,6.9,-,N/A,,Overcast,180,2013-01-07 09:55:00
5:15 AM,29.1,20.1,69,30.18,10.0,South,6.9,-,N/A,,Overcast,180,2013-01-07 10:15:00
5:34 AM,29.3,20.7,70,30.18,10.0,South,6.9,-,N/A,,Overcast,180,2013-01-07 10:34:00
5:55 AM,29.8,21.4,71,30.17,10.0,South,6.9,-,N/A,,Overcast,190,2013-01-07 10:55:00
6:15 AM,29.8,21.2,70,30.17,10.0,South,8.1,-,N/A,,Overcast,180,2013-01-07 11:15:00
6:34 AM,29.8,21.9,72,30.17,10.0,South,8.1,-,N/A,,Overcast,180,2013-01-07 11:34:00
6:55 AM,29.7,21.7,72,30.17,10.0,South,8.1,-,N/A,,Overcast,180,2013-01-07 11:55:00
7:34 AM,29.7,22.1,73,30.16,10.0,South,6.9,-,N/A,,Overcast,180,2013-01-07 12:34:00
7:55 AM,29.3,21.9,74,30.15,10.0,South,10.4,-,N/A,,Overcast,180,2013-01-07 12:55:00
8:14 AM,28.6,21.6,75,30.15,10.0,South,10.4,-,N/A,,Overcast,180,2013-01-07 13:14:00
8:35 AM,28.0,21.4,76,30.14,10.0,South,9.2,-,N/A,,Scattered Clouds,180,2013-01-07 13:35:00
8:55 AM,28.2,21.7,77,30.13,10.0,South,9.2,-,N/A,,Clear,180,2013-01-07 13:55:00
9:14 AM,28.9,22.1,76,30.12,10.0,South,11.5,16.1,N/A,,Clear,180,2013-01-07 14:14:00
9:35 AM,29.7,22.5,75,30.12,10.0,South,11.5,16.1,N/A,,Clear,190,2013-01-07 14:35:00
9:55 AM,30.6,22.5,72,30.12,10.0,South,11.5,18.4,N/A,,Clear,180,2013-01-07 14:55:00
10:14 AM,31.8,22.1,67,30.12,10.0,South,8.1,17.3,N/A,,Clear,190,2013-01-07 15:14:00
10:35 AM,32.5,22.1,65,30.11,10.0,South,9.2,17.3,N/A,,Clear,190,2013-01-07 15:35:00
10:55 AM,33.4,21.7,62,30.10,10.0,South,11.5,20.7,N/A,,Clear,190,2013-01-07 15:55:00
11:14 AM,34.3,21.7,60,30.09,10.0,SSW,9.2,17.3,N/A,,Clear,200,2013-01-07 16:14:00
11:35 AM,35.6,21.6,57,30.07,10.0,South,11.5,20.7,N/A,,Clear,190,2013-01-07 16:35:00
11:54 AM,36.3,21.7,56,30.06,10.0,SSW,15.0,20.7,N/A,,Clear,210,2013-01-07 16:54:00
12:15 PM,37.0,21.9,54,30.03,10.0,South,17.3,24.2,N/A,,Clear,190,2013-01-07 17:15:00
12:35 PM,37.4,22.3,54,30.02,10.0,SSW,15.0,26.5,N/A,,Clear,200,2013-01-07 17:35:00
12:54 PM,37.6,22.5,54,29.99,10.0,SSW,20.7,29.9,N/A,,Clear,200,2013-01-07 17:54:00
1:15 PM,38.3,23.0,54,29.98,10.0,SSW,15.0,25.3,N/A,,Clear,200,2013-01-07 18:15:00
1:35 PM,39.2,23.0,52,29.97,10.0,SSW,17.3,27.6,N/A,,Clear,200,2013-01-07 18:35:00
2:15 PM,40.1,23.4,51,29.95,10.0,SSW,17.3,25.3,N/A,,Clear,210,2013-01-07 19:15:00
2:35 PM,40.3,23.5,51,29.94,10.0,SSW,9.2,21.9,N/A,,Clear,200,2013-01-07 19:35:00
2:54 PM,40.3,23.5,51,29.93,10.0,SSW,16.1,28.8,N/A,,Clear,210,2013-01-07 19:54:00
3:15 PM,40.5,23.2,50,29.93,10.0,SW,11.5,24.2,N/A,,Clear,220,2013-01-07 20:15:00
3:34 PM,40.3,23.7,52,29.93,10.0,SSW,8.1,20.7,N/A,,Clear,200,2013-01-07 20:34:00
3:55 PM,40.1,23.7,52,29.92,10.0,SSW,12.7,24.2,N/A,,Clear,200,2013-01-07 20:55:00
4:15 PM,39.9,23.7,52,29.90,10.0,South,15.0,24.2,N/A,,Clear,190,2013-01-07 21:15:00
4:34 PM,39.9,23.5,52,29.92,10.0,SSW,10.4,17.3,N/A,,Clear,210,2013-01-07 21:34:00
4:55 PM,39.4,23.9,54,29.92,10.0,SSW,15.0,20.7,N/A,,Clear,200,2013-01-07 21:55:00
5:15 PM,39.2,23.9,54,29.93,10.0,SSW,9.2,19.6,N/A,,Clear,210,2013-01-07 22:15:00
5:35 PM,38.5,24.3,57,29.93,10.0,SSW,9.2,24.2,N/A,,Clear,210,2013-01-07 22:35:00
6:15 PM,38.3,24.8,58,29.94,10.0,SW,15.0,25.3,N/A,,Scattered Clouds,220,2013-01-07 23:15:00
6:35 PM,37.9,25.3,60,29.95,10.0,SW,10.4,20.7,N/A,,Scattered Clouds,220,2013-01-07 23:35:00
6:55 PM,37.6,25.7,62,29.95,10.0,SW,10.4,20.7,N/A,,Mostly Cloudy,220,2013-01-07 23:55:00
7:15 PM,37.4,26.4,65,29.95,10.0,SSW,13.8,19.6,N/A,,Overcast,210,2013-01-08 00:15:00
7:35 PM,37.4,27.1,66,29.95,10.0,North,-9999.0,-,N/A,,Overcast,0,2013-01-08 00:35:00
7:55 PM,37.4,27.3,67,29.95,10.0,SW,11.5,-,N/A,,Scattered Clouds,220,2013-01-08 00:55:00
8:14 PM,37.4,27.5,67,29.95,10.0,SSW,12.7,17.3,N/A,,Clear,210,2013-01-08 01:14:00
8:35 PM,37.2,27.9,69,29.94,10.0,SW,11.5,20.7,N/A,,Clear,220,2013-01-08 01:35:00
8:55 PM,37.4,28.2,69,29.94,10.0,SW,11.5,19.6,N/A,,Clear,220,2013-01-08 01:55:00
9:14 PM,37.4,28.4,70,29.94,10.0,SW,11.5,17.3,N/A,,Clear,230,2013-01-08 02:14:00
9:35 PM,37.0,28.8,72,29.95,10.0,SW,8.1,-,N/A,,Clear,220,2013-01-08 02:35:00
9:55 PM,36.7,28.4,72,29.95,10.0,SW,5.8,-,N/A,,Clear,220,2013-01-08 02:55:00
10:35 PM,37.6,26.8,65,29.95,10.0,SSW,6.9,16.1,N/A,,Clear,210,2013-01-08 03:35:00
10:54 PM,37.6,27.0,66,29.95,10.0,SW,8.1,19.6,N/A,,Clear,220,2013-01-08 03:54:00
11:14 PM,37.4,27.3,67,29.96,10.0,SW,9.2,17.3,N/A,,Clear,220,2013-01-08 04:14:00
11:35 PM,37.4,27.3,67,29.96,10.0,SW,8.1,-,N/A,,Clear,220,2013-01-08 04:35:00
11:54 PM,37.2,27.3,67,29.96,10.0,SSW,6.9,16.1,N/A,,Clear,210,2013-01-08 04:54:00